This is the latest recevied weather packets stored in our database for station/object W0WFX-2. If no packets are shown the sender has not sent any weather packets the latest 10 day(s).
| Time | Temp. | Humidity | Pressure | Rain* | Wind** | Luminosity | Snow |
|---|---|---|---|---|---|---|---|
| 1787956725 | 30.56° C | 40% | 1018.1 hPa | 0 mm | - | 62 W/m² | - |
| 1787956421 | 30.56° C | 39% | 1018.1 hPa | 0 mm | - | 67 W/m² | - |
| 1787956116 | 30.56° C | 40% | 1018.3 hPa | 0 mm | - | 67 W/m² | - |
| 1787955811 | 31.11° C | 39% | 1018.1 hPa | 0 mm | - | 313 W/m² | - |
| 1787955507 | 31.67° C | 39% | 1018.4 hPa | 0 mm | - | 330 W/m² | - |
| 1787955207 | 31.67° C | 40% | 1018.4 hPa | 0 mm | - | 346 W/m² | - |
| 1787954902 | 31.67° C | 37% | 1018.3 hPa | 0 mm | - | 362 W/m² | - |
| 1787954598 | 31.67° C | 38% | 1018.4 hPa | 0 mm | - | 375 W/m² | - |
| 1787954297 | 31.11° C | 39% | 1018.4 hPa | 0 mm | - | 390 W/m² | - |
| 1787953992 | 31.11° C | 39% | 1018.6 hPa | 0 mm | - | 405 W/m² | - |
| 1787953690 | 31.11° C | 38% | 1018.7 hPa | 0 mm | - | 417 W/m² | - |
| 1787953386 | 31.11° C | 38% | 1018.7 hPa | 0 mm | - | 431 W/m² | - |
| 1787953084 | 31.11° C | 38% | 1018.5 hPa | 0 mm | - | 446 W/m² | - |
| 1787952778 | 31.67° C | 37% | 1018.7 hPa | 0 mm | - | 460 W/m² | - |
| 1787952478 | 31.11° C | 37% | 1018.8 hPa | 0 mm | - | 474 W/m² | - |
| 1787952175 | 30.56° C | 39% | 1018.8 hPa | 0 mm | - | 491 W/m² | - |
| 1787951873 | 30.56° C | 39% | 1019.1 hPa | 0 mm | - | 506 W/m² | - |
| 1787951569 | 30.56° C | 38% | 1018.8 hPa | 0 mm | - | 511 W/m² | - |
| 1787951265 | 30.56° C | 39% | 1018.5 hPa | 0 mm | - | 473 W/m² | - |
| 1787950961 | 30.56° C | 40% | 1018.6 hPa | 0 mm | - | 509 W/m² | - |
| 1787950656 | 31.11° C | 37% | 1018.8 hPa | 0 mm | - | 552 W/m² | - |
| 1787950352 | 31.67° C | 37% | 1019.1 hPa | 0 mm | - | 569 W/m² | - |
| 1787950048 | 31.67° C | 37% | 1019.1 hPa | 0 mm | - | 576 W/m² | - |
| 1787949744 | 31.11° C | 38% | 1019.1 hPa | 0 mm | - | 587 W/m² | - |
| 1787949443 | 31.67° C | 38% | 1019.3 hPa | 0 mm | - | 591 W/m² | - |
* Rain latest hour (hover to see other rain measurements)
** Current wind speed in m/s (hover to see current wind gust speed)